星链-11250 (STARLINK-11250)

导读 | 豆包AI

STARLINK-11250是美国SpaceX星链(Starlink)星座中的一颗互联网卫星,于2024年8月31日发射入轨。星链项目旨在通过低轨卫星星座为全球偏远、网络欠发达地区提供低延迟、高速宽带互联网接入服务。该卫星运行在近地轨道,延续了星链星座模块化、小卫星设计思路,进一步扩充星座规模,提升全球网络覆盖能力与服务稳定性,助力星链实现全球互联的战略目标。

基本信息
目录编号:
60910
目录名称:
STARLINK-11250
国际标识:
2024-154H
轨道中心:
EARTH
卫星名称:
星链-11250
卫星全名:
星链-11250 (STARLINK-11250)
卫星状态:
在轨 (已飞行632 天)
发射日期:
2024-08-31 UTC
国别 :
美国 (US)
星等 :
--
轨道信息
数据来源 国际轨道数据
星历时间: 2026-05-24T12:53:39+0800
1天前
查看轨道信息
半长轴: 6737.885km
偏心率: 0.0000909
轨道倾角: 53.159°
近地点辐角 87.309°
升交点赤经 119.086°
平近点角 272.803°
近地点: 359.135km
远地点: 360.361km
周期: 91.737分钟
每日圈数: 15.697026
详细信息
固有亮度:
5
最大亮度:
2.5
卫星平台:
Starlink V1.0
覆盖范围:
全球
运营商:
太空探索技术公司
运营商所在国:
美国
制造商(研发单位):
太空探索技术公司
制造商所在国:
美国
使用方式:
暂无
卫星简介
Starlink 计划是 SpaceX 推出的全球卫星互联网项目,通过发射低轨道卫星,为全球尤其是偏远地区提供高速、低延迟的互联网服务。自 2019 年起,Starlink 已部署数千颗卫星,旨在缩小全球数字鸿沟,推动互联网普及。该项目还为军事、航空等行业提供通信支持,带来广泛经济效益。
2D轨道图
3D轨道图
轨道高度分析图
轨道倾角分析图
轨道综合分析图
查看轨道综合分析图